Meteo Giornale » Osservazioni meteo Italia » Venezia-Tessera

ore: 09:50 - Osservazioni Meteo Venezia-Tessera
Lat. 45° 30' N Lon. 12° 20' E Alt. 2 metri s.l.m.

sereno Europe/Rome

8 °C

Sereno

Temp. 24 Ore

4 °C

10 °C

Nord-Est

18.5 Km/h

Dew point 1 °C

Umidità 61 %

Visibilità  10 Km

Il sole sorge alle ore 06:53

Il sole tramonta alle ore 17:53

Data e Ora Cielo e Fenomeni T °C DP °C Um. % Pres. hPa Vis. km Vento km/h
Oggi h: 09:50 sereno Sereno 8 1 61 1022 10 NE 18.5
Oggi h: 09:20 sereno Sereno 7 0 60 1022 10 N/NE 18.5
Oggi h: 08:50 sereno Sereno 6 1 70 1021 10 N 18.5
Oggi h: 07:20 sereno Sereno 4 1 80 1020 10 N 13
Oggi h: 06:50 sereno Sereno 4 1 80 1019 10 N/NO 11.1
Oggi h: 06:20 poco_nuvoloso Poco Nuvoloso 4 2 86 1019 10 NO 14.8
Oggi h: 05:50 poco_nuvoloso Poco Nuvoloso 4 2 86 1019 10 N/NO 14.8
Oggi h: 05:20 poco_nuvoloso Poco Nuvoloso 5 2 80 1018 10 N/NO 13
Oggi h: 04:20 poco_nuvoloso Poco Nuvoloso 5 2 80 1018 10 N/NO 11.1
Oggi h: 03:50 poco_nuvoloso Poco Nuvoloso 6 2 75 1017 10 N/NO 13
Oggi h: 03:20 poco_nuvoloso Poco Nuvoloso 6 3 81 1017 10 N 13
Oggi h: 02:50 nuvoloso Nuvoloso 8 2 65 1017 10 N/NE 16.7
Oggi h: 02:20 nuvoloso Nuvoloso 8 3 70 1016 10 NE 24
Oggi h: 01:50 nuvoloso Nuvoloso 8 3 70 1016 10 NE 27.8
Oggi h: 01:20 molto_nuvoloso Molto Nuvoloso 8 3 70 1015 10 E 35.2
Oggi h: 00:50 molto_nuvoloso Molto Nuvoloso 8 4 75 1014 10 E 38.8
Oggi h: 00:20 molto_nuvoloso Molto Nuvoloso 7 4 81 1013 10 E 40.7
Ieri h: 23:20 molto_nuvoloso Molto Nuvoloso 7 4 81 1012 10 E 37
Ieri h: 22:50 molto_nuvoloso Molto Nuvoloso 8 4 75 1012 10 E/NE 38.8
Ieri h: 22:20 molto_nuvoloso Molto Nuvoloso 8 5 81 1011 10 E/NE 37
Ieri h: 21:50 nuvoloso Nuvoloso 8 6 87 1010 10 E 31.5
Ieri h: 21:20 nuvoloso Nuvoloso 9 6 81 1010 10 E 29.6
Ieri h: 20:50 molto_nuvoloso Molto Nuvoloso 9 6 81 1009 10 NE 14.8
Ieri h: 20:20 molto_nuvoloso Molto Nuvoloso 9 6 81 1009 10 E/NE 11.1
Ieri h: 19:50 molto_nuvoloso Molto Nuvoloso 9 7 87 1008 10 NE 16.7
Ieri h: 19:20 molto_nuvoloso Molto Nuvoloso 10 8 87 1008 10 NE 11.1
Ieri h: 18:50 molto_nuvoloso Molto Nuvoloso 9 8 93 1007 7 N/NE 13
Ieri h: 18:20 molto_nuvoloso Molto Nuvoloso 9 8 93 1007 6 N 14.8
Ieri h: 17:50 foschia Foschia 9 8 93 1006 3 N 14.8
Ieri h: 17:20 foschia Foschia 9 8 93 1006 2 N 14.8
Ieri h: 16:50 foschia Foschia 9 8 93 1006 2 N 13
Ieri h: 16:20 foschia Foschia 9 8 93 1006 3 NE 9.3
Ieri h: 15:50 foschia Foschia 9 8 93 1006 3 N/NE 11.1
Ieri h: 15:20 coperto_pioggia Pioviggine Leggera Foschia 9 8 93 1007 3 NE 11.1
Ieri h: 14:50 foschia Foschia 9 8 93 1006 2 N/NE 13
Ieri h: 14:20 foschia Foschia 8 8 100 1006 2 N/NE 11.1
Ieri h: 13:20 coperto_pioggia Pioggia Debole Foschia 8 7 93 1007 2 NE 11.1
Ieri h: 12:50 coperto_pioggia Pioggia Debole Foschia 8 7 93 1007 2 NE 13
Ieri h: 12:20 coperto_pioggia Pioggia Debole Foschia 8 7 93 1007 2 NE 13
Ieri h: 11:50 foschia Foschia 8 7 93 1008 2 NE 13
Ieri h: 11:20 coperto_pioggia Pioviggine Leggera Foschia 8 7 93 1008 2 N/NE 13
Ieri h: 10:50 coperto_pioggia Pioviggine Leggera Foschia 8 7 93 1008 1 N/NE 11.1
Ieri h: 10:20 coperto_pioggia Pioviggine Leggera Nebbia 8 7 93 1008 0.8 NE 11.1
Ieri h: 09:50 coperto_pioggia Pioviggine Leggera Nebbia 8 7 93 1008 0.8 N/NE 9.3